Regional Weather Roundup
Issued by NWS

Home | Current Version | Previous Version | Text Only | Print | Product List | Glossary On
Versions: 1 2 3 4 5 6 7 8 9 10 11 12 13 14 15 16 17 18 19 20 21 22 23 24 25 26 27 28 29 30 31 32 33 34 35 36 37 38 39 40 41 42 43 44 45 46 47 48 49 50
000
ASUS43 KDTX 030010
RWRMI
MICHIGAN HOURLY REGIONAL WEATHER ROUNDUP
NATIONAL WEATHER SERVICE DETROIT/PONTIAC MI
ISSUED BY NATIONAL WEATHER SERVICE GRAND RAPIDS MI
800 PM EDT WED SEP 02 2015

NOTE: "FAIR" INDICATES FEW OR NO CLOUDS BELOW 12,000 FEET WITH NO
SIGNIFICANT WEATHER AND/OR OBSTRUCTION TO VISIBILITY.

MIZ047>049-052>055-059>063-066>070-074>076-081>083-030100-
SOUTHEAST LOWER MICHIGAN

CITY           SKY/WX    TMP DP  RH WIND       PRES   REMARKS
ADRIAN         CLEAR     80  68  66 W5        29.98S
6HR MIN TEMP:  80; 6HR MAX TEMP:  92;

ALMA           PTCLDY    81  71  73 W5        29.97R
ANN ARBOR      CLEAR     80  68  66 W5        29.97S
BAD AXE        MOCLDY    79  73  80 CALM      29.95S
DETROIT CITY   MOCLDY    81  64  56 N6        29.96R
6HR MIN TEMP:  81; 6HR MAX TEMP:  91;

DETROIT        PTCLDY    85  68  56 W7        29.96R
6HR MIN TEMP:  85; 6HR MAX TEMP:  91;

FLINT          MOCLDY    80  67  64 W6        29.96S
6HR MIN TEMP:  78; 6HR MAX TEMP:  92; 6HR PCP: TRACE;

GROSSE ILE     CLEAR     84  70  61 W6        29.94S
HILLSDALE      PTCLDY    78  74  88 CALM      30.01S
6HR MIN TEMP:  77; 6HR MAX TEMP:  89;

HOWELL         CLEAR     81  69  66 CALM      29.98R
6HR MIN TEMP:  81; 6HR MAX TEMP:  90;


CITY           SKY/WX    TMP DP  RH WIND       PRES   REMARKS
JACKSON        CLEAR     79  70  74 W3        29.99R
6HR MIN TEMP:  79; 6HR MAX TEMP:  87;

LANSING        PTCLDY    81  71  71 W6        29.98S
6HR MIN TEMP:  81; 6HR MAX TEMP:  89;

MASON          CLEAR     81  68  64 CALM      29.98S
6HR MIN TEMP:  81; 6HR MAX TEMP:  88;

MONROE         CLEAR     80  72  76 CALM      29.95S
6HR MIN TEMP:  80; 6HR MAX TEMP:  90;

MT. CLEMENS    MOCLDY    76  68  76 W6        29.94R
6HR MIN TEMP:  76; 6HR MAX TEMP:  90;

PONTIAC        MOCLDY    74  70  87 CALM      29.97S
6HR MIN TEMP:  73; 6HR MAX TEMP:  90; 6HR PCP:  0.07;

PORT HOPE        N/A     73  72  96 SE5       29.93R
6HR MIN TEMP:  73; 6HR MAX TEMP:  78;

PORT HURON     CLOUDY    77  70  78 NW3       29.95R
TRI CITIES     MOCLDY    80  72  76 SW5       29.96R
6HR MIN TEMP:  76; 6HR MAX TEMP:  87; 6HR PCP: TRACE;

YPSILANTI      CLEAR     84  69  60 NW6       29.97R
6HR MIN TEMP:  84; 6HR MAX TEMP:  93;

$$
MIZ043>046-050>051-056>058-064>065-071>073-077>080-030100-
SOUTHWEST LOWER MICHIGAN

CITY           SKY/WX    TMP DP  RH WIND       PRES   REMARKS
BATTLE CREEK   PTCLDY    81  70  69 W3        29.99F
6HR MIN TEMP:  81; 6HR MAX TEMP:  90;

BENTON HARBOR  PTCLDY    83  70  64 S3        29.96S
6HR MIN TEMP:  83; 6HR MAX TEMP:  86;

BIG RAPIDS     CLEAR     78  71  81 CALM      29.97R
6HR MIN TEMP:  78; 6HR MAX TEMP:  88;

COLDWATER      PTCLDY    81  68  64 CALM      29.99S
6HR MIN TEMP:  81; 6HR MAX TEMP:  91;

HOLLAND        CLEAR     79  71  76 CALM      29.97S
6HR MIN TEMP:  78; 6HR MAX TEMP:  86;

GRAND RAPIDS   MOCLDY    81  68  64 W6        29.97S
6HR MIN TEMP:  81; 6HR MAX TEMP:  89;

KALAMAZOO      PTCLDY    82  67  60 NW3       29.99S
6HR MIN TEMP:  82; 6HR MAX TEMP:  89;

MARSHALL       PTCLDY    79  70  74 CALM      29.98S
6HR MIN TEMP:  79; 6HR MAX TEMP:  90;

MOUNT PLEASANT PTCLDY    83  71  65 W5        29.96R
6HR MIN TEMP:  81; 6HR MAX TEMP:  92; 6HR PCP:  0.04;

MUSKEGON       MOCLDY    77  69  76 SW3       29.97S HAZE
6HR MIN TEMP:  77; 6HR MAX TEMP:  83;

STURGIS        PTCLDY    79  73  83 SW3       29.99S
$$
MIZ016>042-030100-
NORTHERN LOWER MICHIGAN

CITY           SKY/WX    TMP DP  RH WIND       PRES   REMARKS
ALPENA         LGT RAIN  69  67  93 VRB3      29.94F FOG
6HR MIN TEMP:  69; 6HR MAX TEMP:  87; 6HR PCP:  0.03;

BEAVER ISLAND  CLOUDY    71  69  93 CALM      29.99R FOG
BELLAIRE       CLOUDY    77  68  74 CALM      29.96S
6HR MIN TEMP:  75; 6HR MAX TEMP:  87;

CADILLAC       CLOUDY    74  70  87 SE10      30.01R
CHARLEVOIX     CLOUDY    75  71  88 CALM      29.99F
GAYLORD        MOCLDY    68  67  96 SW3       29.99F
6HR MIN TEMP:  68; 6HR MAX TEMP:  86; 6HR PCP:  1.07;

HOUGHTON LAKE  LGT RAIN  70  68  93 E3        30.00S
6HR MIN TEMP:  68; 6HR MAX TEMP:  88; 6HR PCP:  0.86;

MANISTEE       MOCLDY    79  70  73 CALM      29.95F
OSCODA         CLOUDY    73  72  95 N3        29.95S FOG
6HR MIN TEMP:  68; 6HR MAX TEMP:  90; 6HR PCP:  0.36;

PELLSTON       MOCLDY    75  68  78 E3        29.97F
6HR MIN TEMP:  74; 6HR MAX TEMP:  85;

TRAVERSE CITY  MOCLDY    76  69  79 CALM      29.95F
6HR MIN TEMP:  73; 6HR MAX TEMP:  90; 6HR PCP: TRACE;

LUDINGTON      MOCLDY    78  71  76 SW3       29.95F
6HR MIN TEMP:  78; 6HR MAX TEMP:  82;

$$
MIZ007>008-015-030100-
EASTERN UPPER MICHIGAN

CITY           SKY/WX    TMP DP  RH WIND       PRES   REMARKS
KINROSS        CLOUDY    70  63  78 SW3       29.98S
6HR MIN TEMP:  70; 6HR MAX TEMP:  79;

MACKINAC ISLAN MOCLDY    71  67  87 NE3       29.97F
NEWBERRY       CLOUDY    71  66  84 CALM      29.99R
6HR MIN TEMP:  71; 6HR MAX TEMP:  79;

S. S. MARIE    CLOUDY    67  63  87 SW8       29.97R
6HR MIN TEMP:  67; 6HR MAX TEMP:  80;

$$
MIZ004>006-011>014-085-030100-
CENTRAL UPPER MICHIGAN

CITY           SKY/WX    TMP DP  RH WIND       PRES   REMARKS
MANISTIQUE     RAIN      72  70  94 CALM      29.98S
6HR MIN TEMP:  71; 6HR MAX TEMP:  78; 6HR PCP:  0.06;

ESCANABA       CLOUDY    72  72 100 E10       29.91F
                                      6HR PCP:  0.17;

MENOMINEE      MOCLDY    68  63  83 E7        29.91F
6HR MIN TEMP:  66; 6HR MAX TEMP:  79; 6HR PCP:  0.34;

$$
MIZ001>003-009>011-084-030100-
WESTERN UPPER MICHIGAN

CITY           SKY/WX    TMP DP  RH WIND       PRES   REMARKS
IRON MOUNTAIN  CLOUDY    69  66  90 CALM      29.94S
6HR MIN TEMP:  69; 6HR MAX TEMP:  77; 6HR PCP: TRACE;

HOUGHTON       CLOUDY    70  66  87 CALM      29.97R
6HR MIN TEMP:  68; 6HR MAX TEMP:  71; 6HR PCP: TRACE;

COPPER HARBOR    N/A     65  62  90 S5        29.96S
6HR MIN TEMP:  64; 6HR MAX TEMP:  71;

IRONWOOD       MOCLDY    68  66  94 E3        29.92F
6HR MIN TEMP:  64; 6HR MAX TEMP:  72;

$$

ABBREVIATIONS USED IN REMARKS
   TC - TEMPERATURE IN CELSIUS
  WCI - WIND CHILL INDEX
   HX - HEAT INDEX
  VSB - VISIBILITY



USA.gov is the U.S. government's official web portal to all federal, state and local government web resources and services.